Location: Croisilles
(50.1998°N, 2.8793°E)
Time: 02:17:10
(UTC+00:00)

X-37B - Pass Details

Date: 21 January 2021
Orbit: 383 x 391 km, 45.0° (Epoch: 10 February)

Event Time Altitude Azimuth Distance (km) Brightness Sun altitude
Rises 18:06:45 0° 226° (SW) 2,268 5.5 -16.1°
Reaches altitude 10° 18:09:10 10° 209° (SSW) 1,417 4.0 -16.5°
Maximum altitude 18:11:33 20° 160° (SSE) 984 2.5 -16.8°
Enters shadow 18:11:57 19° 150° (SSE) 999 2.4 -16.9°
